FW5933 Weather Reports


Display with metric or nautical units.
time (UTC)temp
F
wind
direction
speed
MPH
gust
MPH
rain 1hr
in
rain 24hr
in
rain mn
in
humidity
%
barometer
mb
20260906103658 73 310 0.0 0.0 0.00 0.00 0.00 98 1015.2
20260906103154 73 0 0.0 0.0 0.00 0.00 0.00 98 1014.9
20260906102649 73 35 0.0 0.0 0.00 0.00 0.00 97 1015.4
20260906102149 73 35 0.0 0.0 0.00 0.00 0.00 97 1015.2
20260906101648 73 43 0.0 0.0 0.00 0.00 0.00 97 1015.4
20260906101143 73 49 0.0 0.0 0.00 0.00 0.00 97 1014.8
20260906100639 73 5 0.0 0.0 0.00 0.00 0.00 98 1015.1
20260906100133 73 5 0.0 0.0 0.00 0.00 0.00 99 1015.3
20260906095628 73 3 0.0 0.0 0.00 0.00 0.00 99 1015.2
20260906095124 72 3 0.0 0.0 0.00 0.00 0.00 99 1015.5
20260906094622 72 239 0.0 0.0 0.00 0.00 0.00 99 1015.3
20260906094118 72 239 0.0 0.0 0.00 0.00 0.00 99 1015.2
20260906093614 72 239 0.0 0.0 0.00 0.00 0.00 99 1015.2
20260906093108 72 239 0.0 0.0 0.00 0.00 0.00 99 1015.2
20260906092603 72 239 0.0 0.0 0.00 0.00 0.00 99 1015.3
20260906092059 72 239 0.0 0.0 0.00 0.00 0.00 99 1015.3
20260906091554 72 239 0.0 0.0 0.00 0.00 0.00 99 1015.2
20260906091051 72 239 0.0 0.0 0.00 0.00 0.00 99 1015.3
20260906090551 72 239 0.0 0.0 0.00 0.00 0.00 99 1015.3
20260906090046 72 239 0.0 0.0 0.00 0.00 0.00 99 1015.3
20260906085544 72 239 0.0 0.0 0.00 0.00 0.00 99 1015.6
20260906085044 72 239 0.0 0.0 0.00 0.00 0.00 99 1015.3
20260906084539 72 239 0.0 0.0 0.00 0.00 0.00 99 1015.2
20260906084037 72 239 0.0 0.0 0.00 0.00 0.00 99 1015.4
20260906083534 72 239 0.0 0.0 0.00 0.00 0.00 99 1015.4
20260906083033 72 239 0.0 0.0 0.00 0.00 0.00 99 1015.3
20260906082528 72 239 0.0 0.0 0.00 0.00 0.00 99 1015.1
20260906082024 72 239 0.0 0.0 0.00 0.00 0.00 99 1014.9
20260906081520 72 239 0.0 0.0 0.00 0.00 0.00 99 1015.1
20260906081016 72 239 0.0 0.0 0.00 0.00 0.00 99 1014.8
20260906080512 72 239 0.0 0.0 0.00 0.00 0.00 99 1015.2
20260906080008 72 239 0.0 0.0 0.00 0.00 0.00 99 1014.8
20260906075502 72 239 0.0 0.0 0.00 0.00 0.00 99 1014.9
20260906074956 72 239 0.0 0.0 0.00 0.00 0.00 99 1015.3
20260906074451 72 239 0.0 0.0 0.00 0.00 0.00 99 1015.3
20260906073949 72 239 0.0 0.0 0.00 0.00 0.00 99 1015.1
20260906073444 72 239 0.0 0.0 0.00 0.00 0.00 99 1015.2
20260906072941 71 239 0.0 0.0 0.00 0.00 0.00 99 1015.4
20260906072436 71 239 0.0 0.0 0.00 0.00 0.00 99 1015.5
20260906071932 72 239 0.0 0.0 0.00 0.00 0.00 99 1015.4
20260906071427 72 239 0.0 0.0 0.00 0.00 0.00 99 1015.2
20260906070923 72 239 0.0 0.0 0.00 0.00 0.00 99 1015.2
20260906070419 72 239 0.0 0.0 0.00 0.00 0.00 99 1015.5
20260906065915 72 239 0.0 0.0 0.00 0.00 0.00 99 1015.3
20260906065409 72 239 0.0 0.0 0.00 0.00 0.00 99 1015.2
20260906064905 72 239 0.0 0.0 0.00 0.00 0.00 99 1015.4
20260906064401 72 239 0.0 0.0 0.00 0.00 0.00 99 1015.3
20260906063901 72 239 0.0 0.0 0.00 0.00 0.00 99 1015.2
20260906063356 72 239 0.0 0.0 0.00 0.00 0.00 99 1015.3
20260906062851 72 239 0.0 0.0 0.00 0.00 0.00 99 1015.5
20260906062350 72 239 0.0 0.0 0.00 0.00 0.00 99 1015.6
20260906061846 72 239 0.0 0.0 0.00 0.00 0.00 99 1015.6
20260906061342 72 239 0.0 0.0 0.00 0.00 0.00 99 1015.5
20260906060836 73 239 0.0 0.0 0.00 0.00 0.00 99 1015.7
20260906060334 73 239 0.0 0.0 0.00 0.00 0.00 99 1015.6
20260906055830 73 239 0.0 0.0 0.00 0.00 0.00 99 1015.7
20260906055325 73 239 0.0 0.0 0.00 0.00 0.00 99 1015.7
20260906054821 73 239 0.0 0.0 0.00 0.00 0.00 99 1015.8
20260906054315 73 239 0.0 0.0 0.00 0.00 0.00 99 1015.8
20260906053812 73 239 0.0 0.0 0.00 0.00 0.00 99 1016.0
20260906053307 73 239 0.0 0.0 0.00 0.00 0.00 99 1016.0
20260906052802 73 239 0.0 0.0 0.00 0.00 0.00 99 1016.2
20260906052259 73 239 0.0 0.0 0.00 0.00 0.00 99 1016.2
20260906051755 73 239 0.0 0.0 0.00 0.00 0.00 99 1016.4
20260906051255 73 239 0.0 0.0 0.00 0.00 0.00 99 1016.2
20260906050750 73 239 0.0 0.0 0.00 0.00 0.00 99 1016.3
20260906050246 73 239 0.0 0.0 0.00 0.00 0.00 99 1016.5
20260906045744 73 239 0.0 0.0 0.00 0.00 0.00 99 1016.3
20260906045239 73 239 0.0 0.0 0.00 0.00 0.00 99 1016.5
20260906044735 73 239 0.0 0.0 0.00 0.00 0.00 99 1016.4
20260906044230 72 239 0.0 0.0 0.00 0.00 0.00 99 1016.4
20260906043726 72 239 0.0 0.0 0.00 0.00 0.00 99 1016.3
20260906043222 72 239 0.0 0.0 0.00 0.00 0.00 99 1016.1
20260906042721 72 240 0.0 0.0 0.00 0.00 0.00 99 1016.1
20260906042220 72 240 0.0 0.0 0.00 0.00 0.00 99 1015.9
20260906041716 71 240 0.0 0.0 0.00 0.00 0.00 99 1016.2
20260906041211 71 240 0.0 0.0 0.00 0.00 0.00 99 1016.0
20260906040707 71 240 0.0 0.0 0.00 0.00 0.00 99 1016.1
20260906040201 72 240 0.0 0.0 0.00 0.00 0.00 99 1016.0
20260906035657 72 240 0.0 0.0 0.00 0.01 0.01 99 1016.1
20260906035153 72 240 0.0 0.0 0.00 0.01 0.01 99 1016.3
20260906034653 72 240 0.0 0.0 0.00 0.01 0.01 99 1016.3
20260906034148 72 240 0.0 0.0 0.00 0.01 0.01 99 1016.3
20260906033643 72 240 0.0 0.0 0.00 0.01 0.01 99 1016.5
20260906033138 72 240 0.0 0.0 0.00 0.01 0.01 99 1016.2
20260906032635 72 240 0.0 0.0 0.00 0.01 0.01 99 1016.4
20260906032134 72 240 0.0 0.0 0.00 0.01 0.01 99 1016.4
20260906031630 72 240 0.0 0.0 0.00 0.01 0.01 99 1016.4
20260906031125 72 240 0.0 0.0 0.00 0.01 0.01 99 1016.4
20260906030624 72 240 0.0 0.0 0.00 0.01 0.01 99 1016.6
20260906030120 72 240 0.0 0.0 0.00 0.01 0.01 99 1016.4
20260906025619 72 219 0.0 0.0 0.00 0.01 0.01 99 1016.4
20260906025118 72 219 0.0 0.0 0.00 0.01 0.01 99 1016.4
20260906024613 72 219 0.0 0.0 0.00 0.01 0.01 99 1016.5
20260906024107 73 219 0.0 0.0 0.00 0.01 0.01 99 1016.6
20260906023603 73 219 0.0 0.0 0.00 0.01 0.01 99 1016.6
20260906023057 73 219 0.0 0.0 0.00 0.01 0.01 99 1016.5
20260906022553 73 219 0.0 0.0 0.00 0.01 0.01 99 1016.7
20260906022048 73 219 0.0 0.0 0.00 0.01 0.01 99 1016.5
20260906021544 73 219 0.0 0.0 0.00 0.01 0.01 99 1016.9
20260906021042 73 219 0.0 0.0 0.00 0.01 0.01 99 1016.9
20260906020537 73 219 0.0 0.0 0.00 0.01 0.01 99 1016.7
20260906020037 73 219 0.0 0.0 0.00 0.01 0.01 99 1016.8
20260906015536 73 219 0.0 0.0 0.00 0.01 0.01 99 1016.8
20260906015036 73 219 0.0 0.0 0.00 0.01 0.01 99 1016.5
20260906014531 73 219 0.0 0.0 0.00 0.01 0.01 99 1016.8
20260906014026 73 219 0.0 0.0 0.00 0.01 0.01 99 1017.0
20260906013522 73 219 0.0 0.0 0.00 0.01 0.01 99 1016.6
20260906013017 73 219 0.0 0.0 0.00 0.01 0.01 99 1016.5
20260906012512 73 219 0.0 0.0 0.00 0.01 0.01 99 1016.3
20260906012012 73 219 0.0 0.0 0.00 0.01 0.01 99 1016.3
20260906011508 73 219 0.0 0.0 0.00 0.01 0.01 99 1016.5
20260906011002 73 219 0.0 0.0 0.00 0.01 0.01 99 1016.5
20260906010457 73 219 0.0 0.0 0.00 0.01 0.01 99 1016.1
20260906005954 73 123 0.0 0.0 0.00 0.01 0.01 99 1016.2
20260906005453 73 212 0.0 0.0 0.00 0.01 0.01 99 1016.1
20260906004951 73 256 0.0 0.0 0.00 0.01 0.01 99 1016.1
20260906004446 73 256 0.0 0.0 0.00 0.01 0.01 99 1016.0
20260906003941 73 256 0.0 0.0 0.00 0.01 0.01 99 1015.7
20260906003442 74 259 0.0 0.0 0.00 0.01 0.01 99 1015.5
20260906002937 74 259 0.0 0.0 0.00 0.01 0.01 99 1015.5
20260906002437 74 259 0.0 0.0 0.00 0.01 0.01 99 1015.4
20260906001932 74 258 0.0 0.0 0.00 0.01 0.01 99 1015.4
20260906001428 74 284 0.0 0.0 0.00 0.01 0.01 99 1014.9
20260906000923 74 24 0.0 0.0 0.00 0.01 0.01 99 1014.8
20260906000418 74 24 0.0 0.0 0.00 0.01 0.01 99 1014.5
20260905235913 74 24 0.0 0.0 0.00 0.01 0.01 99 1014.6
20260905235407 74 25 0.0 0.0 0.00 0.01 0.01 99 1014.7
20260905234902 74 25 0.0 0.0 0.00 0.01 0.01 99 1014.8
20260905234357 74 44 0.0 0.0 0.00 0.01 0.01 99 1015.1
20260905233852 74 45 0.0 0.0 0.00 0.01 0.01 99 1014.9
20260905233347 74 72 0.0 0.0 0.00 0.01 0.01 99 1015.3
20260905232847 74 69 0.0 0.0 0.00 0.01 0.01 99 1014.9
20260905232343 74 71 0.0 0.0 0.00 0.01 0.01 99 1015.1
20260905231838 74 71 0.0 0.0 0.00 0.01 0.01 98 1015.2
20260905231338 74 176 0.0 0.0 0.00 0.01 0.01 98 1015.4
20260905230836 74 77 0.0 0.0 0.00 0.01 0.01 98 1015.2
20260905230333 73 40 0.0 0.0 0.00 0.01 0.01 97 1014.9
20260905225832 73 72 0.0 0.0 0.00 0.01 0.01 97 1014.7
20260905225328 73 100 0.0 0.0 0.00 0.01 0.01 97 1014.6
20260905224828 73 124 0.0 0.0 0.00 0.01 0.01 97 1014.6
20260905224323 73 193 0.0 0.0 0.00 0.01 0.01 97 1014.6
20260905223818 73 311 0.0 0.0 0.00 0.01 0.01 97 1014.7
20260905223316 74 31 0.0 0.0 0.00 0.01 0.01 97 1015.1
20260905222811 73 48 0.0 0.0 0.00 0.01 0.01 97 1014.5
20260905222310 73 244 0.0 0.0 0.00 0.01 0.01 95 1014.6
20260905221806 73 202 1.0 1.0 0.00 0.01 0.01 95 1014.6
20260905221303 73 239 1.0 1.0 0.00 0.01 0.01 96 1014.8
20260905220758 73 188 0.0 0.0 0.00 0.01 0.01 95 1014.9
20260905220254 74 209 0.0 0.0 0.00 0.01 0.01 95 1014.8
20260905215753 74 50 0.0 0.0 0.05 0.01 0.01 92 1016.1
20260905215249 76 48 0.0 0.0 0.05 0.01 0.01 87 1016.3
20260905214744 78 34 1.0 1.0 0.00 0.00 0.00 82 1016.4
20260905214240 80 52 3.0 3.0 0.00 0.00 0.00 69 1016.5
20260905213735 79 27 1.0 2.0 0.00 0.00 0.00 63 1015.9
20260905213231 78 317 1.0 1.0 0.00 0.00 0.00 68 1015.4
20260905212726 78 99 1.0 2.0 0.00 0.00 0.00 70 1015.2
20260905212225 80 66 2.0 3.0 0.00 0.00 0.00 71 1014.9
20260905211719 84 43 4.0 6.0 0.00 0.00 0.00 63 1015.6
20260905211215 88 307 2.0 2.0 0.00 0.00 0.00 59 1014.8
20260905210711 100 245 3.0 5.0 0.00 0.00 0.00 49 1015.3
20260905210206 100 118 0.0 1.0 0.00 0.00 0.00 44 1014.4
20260905205705 100 44 0.0 0.0 0.00 0.00 0.00 44 1014.0
20260905205204 100 250 0.0 1.0 0.00 0.00 0.00 48 1013.9
20260905204659 100 19 0.0 0.0 0.00 0.00 0.00 49 1014.2
20260905204154 99 218 0.0 0.0 0.00 0.00 0.00 48 1014.1
20260905203649 99 209 1.0 1.0 0.00 0.00 0.00 47 1014.2
20260905203144 97 260 1.0 1.0 0.00 0.00 0.00 47 1014.2
20260905202639 99 241 2.0 3.0 0.00 0.00 0.00 45 1014.5
20260905202135 100 71 1.0 1.0 0.00 0.00 0.00 46 1014.2
20260905201630 100 30 0.0 0.0 0.00 0.00 0.00 45 1014.4
20260905201130 100 125 2.0 2.0 0.00 0.00 0.00 45 1014.6
20260905200626 99 152 0.0 1.0 0.00 0.00 0.00 47 1014.7
20260905200121 99 97 1.0 1.0 0.00 0.00 0.00 47 1014.6
20260905195619 98 237 0.0 1.0 0.00 0.00 0.00 48 1014.7
20260905195115 100 86 0.0 1.0 0.00 0.00 0.00 47 1014.7
20260905194615 99 24 0.0 0.0 0.00 0.00 0.00 50 1014.4
20260905194114 99 59 0.0 0.0 0.00 0.00 0.00 50 1014.5
20260905193609 99 176 0.0 1.0 0.00 0.00 0.00 48 1014.8
20260905193104 99 266 3.0 3.0 0.00 0.00 0.00 50 1014.8
20260905192600 99 183 1.0 1.0 0.00 0.00 0.00 49 1015.2
20260905192055 99 208 0.0 1.0 0.00 0.00 0.00 48 1015.2
20260905191554 100 110 0.0 0.0 0.00 0.00 0.00 47 1015.2
20260905191048 100 65 1.0 1.0 0.00 0.00 0.00 47 1015.3
20260905190546 99 253 1.0 2.0 0.00 0.00 0.00 47 1015.3
20260905190045 100 210 1.0 1.0 0.00 0.00 0.00 46 1015.2
20260905185545 100 189 1.0 1.0 0.00 0.00 0.00 45 1015.3
20260905185044 101 210 1.0 2.0 0.00 0.00 0.00 45 1015.3
20260905184539 100 38 0.0 1.0 0.00 0.00 0.00 46 1015.3
20260905184038 99 244 0.0 0.0 0.00 0.00 0.00 48 1015.4
20260905183537 99 62 0.0 0.0 0.00 0.00 0.00 46 1015.6
20260905183033 98 67 0.0 1.0 0.00 0.00 0.00 49 1015.6
20260905182527 98 52 0.0 0.0 0.00 0.00 0.00 50 1015.5
20260905182027 98 189 1.0 1.0 0.00 0.00 0.00 51 1015.5
20260905181522 99 164 1.0 1.0 0.00 0.00 0.00 51 1015.8
20260905181021 99 65 0.0 0.0 0.00 0.00 0.00 50 1015.7
20260905180516 98 33 0.0 0.0 0.00 0.00 0.00 48 1015.7
20260905180011 97 34 0.0 1.0 0.00 0.00 0.00 50 1016.1
20260905175510 96 43 1.0 1.0 0.00 0.00 0.00 51 1015.9
20260905175006 94 272 1.0 1.0 0.00 0.00 0.00 55 1015.9
20260905174501 95 237 0.0 0.0 0.00 0.00 0.00 54 1016.3
20260905173957 95 333 0.0 0.0 0.00 0.00 0.00 53 1016.1
20260905173453 96 54 1.0 1.0 0.00 0.00 0.00 53 1016.2
20260905172948 96 45 0.0 0.0 0.00 0.00 0.00 56 1016.3
20260905172446 96 258 0.0 1.0 0.00 0.00 0.00 53 1016.5
20260905171942 96 268 1.0 2.0 0.00 0.00 0.00 54 1016.4
20260905171439 96 246 0.0 0.0 0.00 0.00 0.00 55 1016.5
20260905170935 95 30 0.0 0.0 0.00 0.00 0.00 55 1016.6
20260905170431 94 243 0.0 0.0 0.00 0.00 0.00 60 1016.8
20260905165930 95 218 0.0 0.0 0.00 0.00 0.00 57 1016.7
20260905165425 95 84 0.0 1.0 0.00 0.00 0.00 55 1016.7
20260905164920 95 37 0.0 0.0 0.00 0.00 0.00 58 1016.8
20260905164414 94 219 1.0 2.0 0.00 0.00 0.00 60 1016.8
20260905163909 94 73 0.0 0.0 0.00 0.00 0.00 59 1016.9
20260905163406 94 215 1.0 2.0 0.00 0.00 0.00 59 1017.1
20260905162902 94 157 2.0 2.0 0.00 0.00 0.00 60 1017.3
20260905162356 93 49 0.0 0.0 0.00 0.00 0.00 61 1017.3
20260905161851 93 332 0.0 0.0 0.00 0.00 0.00 62 1017.4
20260905161350 93 118 1.0 1.0 0.00 0.00 0.00 62 1017.4
20260905160848 92 245 0.0 0.0 0.00 0.00 0.00 63 1017.3
20260905160343 92 33 0.0 0.0 0.00 0.00 0.00 64 1017.4
20260905155837 91 37 0.0 0.0 0.00 0.00 0.00 63 1017.4
20260905155331 91 268 0.0 0.0 0.00 0.00 0.00 65 1017.4
20260905154830 90 133 0.0 0.0 0.00 0.00 0.00 65 1017.6
20260905154326 90 63 2.0 3.0 0.00 0.00 0.00 65 1017.6
20260905153821 90 73 0.0 0.0 0.00 0.00 0.00 65 1017.6
20260905153318 90 277 0.0 0.0 0.00 0.00 0.00 66 1017.7
20260905152818 90 168 0.0 1.0 0.00 0.00 0.00 67 1017.5
20260905152316 89 183 0.0 0.0 0.00 0.00 0.00 67 1017.6
20260905151812 89 144 1.0 2.0 0.00 0.00 0.00 68 1017.7
20260905151307 89 72 0.0 0.0 0.00 0.00 0.00 68 1017.8
20260905150802 88 205 0.0 0.0 0.00 0.00 0.00 69 1017.8
20260905150302 87 70 0.0 0.0 0.00 0.00 0.00 72 1018.0
20260905145759 87 205 0.0 0.0 0.00 0.00 0.00 71 1017.9
20260905145253 87 196 0.0 0.0 0.00 0.00 0.00 72 1018.0
20260905144752 86 158 2.0 2.0 0.00 0.00 0.00 72 1018.0
20260905144248 86 175 0.0 0.0 0.00 0.00 0.00 72 1017.9
20260905143746 86 43 0.0 0.0 0.00 0.00 0.00 73 1018.3
20260905143241 85 48 0.0 0.0 0.00 0.00 0.00 74 1018.0
20260905142739 85 195 1.0 2.0 0.00 0.00 0.00 74 1018.0
20260905142234 85 130 1.0 1.0 0.00 0.00 0.00 74 1018.3
20260905141730 84 50 1.0 1.0 0.00 0.00 0.00 74 1018.1
20260905141226 84 55 0.0 0.0 0.00 0.00 0.00 75 1018.4
20260905140721 84 39 0.0 0.0 0.00 0.00 0.00 75 1018.3
20260905140220 84 59 0.0 0.0 0.00 0.00 0.00 77 1017.9
20260905135715 83 81 0.0 0.0 0.00 0.00 0.00 77 1018.1
20260905135211 83 124 0.0 1.0 0.00 0.00 0.00 77 1018.4
20260905134710 83 56 0.0 0.0 0.00 0.00 0.00 78 1017.9
20260905134210 82 43 0.0 0.0 0.00 0.00 0.00 79 1018.1
20260905133705 81 324 0.0 0.0 0.00 0.00 0.00 82 1018.1
20260905133200 81 59 0.0 0.0 0.00 0.00 0.00 84 1018.5
20260905132659 80 40 0.0 0.0 0.00 0.00 0.00 85 1018.5
20260905132154 80 148 0.0 0.0 0.00 0.00 0.00 86 1018.4
20260905131650 79 49 0.0 0.0 0.00 0.00 0.00 87 1018.4
20260905131150 79 232 0.0 0.0 0.00 0.00 0.00 88 1018.7
20260905130645 79 233 0.0 0.0 0.00 0.00 0.00 89 1018.6
20260905130144 78 80 0.0 0.0 0.00 0.00 0.00 90 1018.6
20260905125638 78 178 0.0 0.0 0.00 0.00 0.00 90 1018.5
20260905125134 77 35 0.0 0.0 0.00 0.00 0.00 92 1018.5
20260905124630 76 230 0.0 0.0 0.00 0.00 0.00 96 1018.1
20260905124126 76 230 0.0 0.0 0.00 0.00 0.00 98 1018.4
20260905123621 76 252 0.0 0.0 0.00 0.00 0.00 99 1018.1
20260905123119 75 252 0.0 0.0 0.00 0.00 0.00 99 1018.4
20260905122613 75 252 0.0 0.0 0.00 0.00 0.00 99 1018.6
20260905122113 75 252 0.0 0.0 0.00 0.00 0.00 99 1018.1
20260905121608 75 252 0.0 0.0 0.00 0.00 0.00 99 1018.3
20260905121103 74 252 0.0 0.0 0.00 0.00 0.00 99 1018.1
20260905120602 74 252 0.0 0.0 0.00 0.00 0.00 99 1018.1
20260905120057 74 252 0.0 0.0 0.00 0.00 0.00 99 1018.1
20260905115556 74 252 0.0 0.0 0.00 0.00 0.00 99 1018.1
20260905115051 73 252 0.0 0.0 0.00 0.00 0.00 99 1017.9
20260905114550 72 252 0.0 0.0 0.00 0.00 0.00 98 1018.0
20260905114049 73 252 0.0 0.0 0.00 0.00 0.00 98 1017.9
20260905113544 73 252 0.0 0.0 0.00 0.00 0.00 98 1017.8
20260905113039 73 252 0.0 0.0 0.00 0.00 0.00 98 1017.6
20260905112535 73 244 0.0 0.0 0.00 0.00 0.00 98 1017.7
20260905112030 73 244 0.0 0.0 0.00 0.00 0.00 98 1017.8
20260905111525 73 244 0.0 0.0 0.00 0.00 0.00 98 1017.5
20260905111024 73 244 0.0 0.0 0.00 0.00 0.00 98 1017.7
20260905110523 73 244 0.0 0.0 0.00 0.00 0.00 98 1017.6
20260905110019 72 244 0.0 0.0 0.00 0.00 0.00 98 1017.4
20260905105513 72 244 0.0 0.0 0.00 0.00 0.00 98 1017.3
20260905105013 72 244 0.0 0.0 0.00 0.00 0.00 98 1017.6
20260905104509 72 244 0.0 0.0 0.00 0.00 0.00 98 1017.4
20260905104008 72 244 0.0 0.0 0.00 0.00 0.00 98 1017.4